Retour au catalogue

STARLINK-4356

ActifCommunicationsSSO
NORAD 53224·PAYLOAD·🇺🇸 United States

Lancé Jul 22, 2022 depuis Vandenberg Space Force Base

Loading…

Prochains Passages (prochaines 24 heures)

TLE

FraisSource: CelesTrak SupGP

Époque: Sep 14, 2026, 13:29 UTC

1 53224C 22084AM  26257.56229167  .00078136  00000+0  24254-2 0  2572
2 53224  97.2839 312.4270 0000979 102.7523 173.4596 15.33401317    14

Suivez STARLINK-4356 en temps réel avec AllMySat

Download on the App Store